[[{"header":{"parameterUnit":"m.s-1","parameterCategory":1,"la1":30.2991,"la2":30.254,"lo1":-89.0895,"lo2":-89.0444,"dy":0.0017,"dx":0.0017,"nx":28,"ny":28,"refTime":"2023-08-08T03:00:00:Z","depth":0,"parameterNumber":2,"parameterNumberName":"U-component_of_WINDS"},"data":[0,0,0,0,0,0,0,0,0,0,0,0,0,0,0,0,0,0,0,0,0,0,0,0,0,0,0,0,0,0,0,0,0,0,0,0,0,0,0,0,0,0,0,0,0,0,0,0,0,0,0,0,0,0,0,0,0,0,4.4663,4.4665,0,4.4849,4.4851,4.4854,4.4823,4.482,4.4817,4.4814,4.5006,4.5014,4.5022,0,0,0,0,0,0,0,0,0,0,0,0,0,4.4282,4.4289,4.4663,4.4665,4.4668,4.4849,4.4852,4.4854,4.4824,4.482,4.4816,4.4812,4.5004,4.5013,4.5023,0,0,0,0,0,0,0,0,0,0,0,0,0,4.4456,4.4292,4.4663,4.4674,4.4677,4.4849,4.4852,4.4855,4.4825,4.482,4.4815,4.4811,4.5,4.5012,4.5024,4.5196,0,0,4.5061,4.5067,0,0,0,0,0,0,0,0,4.4446,4.447,4.467,4.4674,4.4678,4.4808,4.4788,4.4969,4.4826,4.4769,4.4814,4.4808,4.4944,4.4961,4.5006,4.5205,4.5213,4.5063,4.507,4.5075,4.5079,0,0,0,0,0,0,0,4.4434,4.4462,4.4737,4.4673,4.4678,4.4671,4.469,4.4822,4.4881,4.4773,4.4772,4.4794,4.4945,4.4995,4.5011,4.5216,4.5062,4.5073,4.5081,4.5085,4.5564,4.5569,0,0,0,0,0,0,4.4418,4.4452,4.4731,4.4742,4.4547,4.4681,4.4703,4.4771,4.488,4.4892,4.4798,4.4792,4.4976,4.4997,4.5017,4.5225,4.5075,4.5087,4.5094,4.5558,4.5565,4.5571,0,0,0,0,0,0,4.441,4.4444,4.4723,4.4597,4.4632,4.4693,4.477,4.4777,4.4827,4.4898,4.4909,4.4837,4.4973,4.5,4.5151,4.5231,4.5092,4.5103,4.5552,4.556,4.5568,4.5641,0,0,0,0,0,0,4.44,4.4441,4.4507,4.4598,4.4639,4.4854,4.4775,4.4784,4.4847,4.4841,4.4938,4.495,4.4972,4.5133,4.5164,4.5245,4.5113,4.5545,4.5556,4.5565,4.5632,4.5651,4.5667,0,0,0,0,0,4.4386,4.4521,4.451,4.4544,4.4722,4.4859,4.4882,4.4904,4.4854,4.4921,4.4967,4.4947,4.5217,4.5149,4.5183,4.5269,4.554,4.5553,4.5564,4.5624,4.5647,4.5667,0,0,0,0,0,0,4.4438,4.4533,4.4522,4.4691,4.4767,4.4854,4.4938,4.4928,4.502,4.5011,4.5035,4.5057,4.521,4.5255,4.5177,4.5441,4.5372,4.5391,4.5406,4.5428,4.5445,4.5431,4.5123,0,0,0,0,0,4.4469,4.4571,4.4649,4.479,4.4829,4.4877,4.4938,4.4948,4.5028,4.506,4.5117,4.5196,4.5299,4.5366,4.5465,4.5638,4.5659,4.5715,4.5732,4.5746,4.5763,4.5857,4.5882,4.5611,4.5611,4.561,0,0,4.4534,4.4599,4.4662,4.4802,4.4862,4.4968,4.4905,4.502,4.5098,4.5078,4.5224,4.5268,4.5358,4.5521,4.5595,4.5563,4.5842,4.5761,4.5772,4.5781,4.5872,4.5898,4.592,4.5619,4.5617,4.5616,0,0,4.4706,4.4766,4.4889,4.4951,4.5042,4.5073,4.5103,4.5191,4.522,4.5366,4.5352,4.5447,4.5623,4.5687,4.5743,4.5938,4.5923,4.597,4.6061,4.6153,4.6174,4.6193,4.6262,4.6287,4.5986,4.5986,4.5986,0,4.4776,4.4935,4.4954,4.5071,4.5132,4.5117,4.5242,4.5301,4.5421,4.5464,4.5425,4.5646,4.5705,4.5882,4.593,4.5976,4.601,4.5959,4.617,4.6189,4.6207,4.6273,4.6299,4.5991,4.5991,4.599,4.599,0,4.5015,4.5126,4.5214,4.5329,4.54,4.5521,4.5558,4.5629,4.5632,4.5667,4.5816,4.5887,4.5999,4.6041,4.6047,4.6219,4.6196,4.6164,4.6095,4.6238,4.63,4.6326,4.5999,4.5997,4.5995,4.5994,0,0,4.5227,4.5349,4.5382,4.5433,4.5532,4.5618,4.5737,4.5845,4.5905,4.5987,4.6088,4.6237,4.6207,4.627,4.6282,4.6363,4.6512,4.632,4.6323,4.6353,4.6706,4.6729,4.6758,4.6502,4.6507,4.6511,4.6698,0,4.5409,4.5618,4.5639,4.5827,4.5928,4.5915,4.6018,4.609,4.6126,4.6217,4.6257,4.6362,4.6315,4.6353,4.6432,4.6477,4.6583,4.6464,4.6596,4.66,4.6573,4.6791,4.6817,4.6989,4.6722,4.6727,4.673,0,4.5649,4.5737,4.5935,4.6018,4.6062,4.6154,4.6255,4.6343,4.6424,4.6444,4.6514,4.6515,4.6637,4.6564,4.6733,4.6651,4.6706,4.6737,4.6744,4.6757,4.6673,4.6809,4.7045,4.7071,4.6768,4.6765,4.6763,0,4.5783,4.5951,4.609,4.6135,4.6236,4.6301,4.6347,4.6423,4.6486,4.6574,4.6616,4.6717,4.6773,4.6851,4.688,4.6824,4.7047,4.6976,4.7067,4.7067,4.7115,4.7112,4.7363,4.7152,4.7151,4.7151,4.715,0,4.5983,4.6105,4.6152,4.6238,4.6373,4.6395,4.6528,4.657,4.6638,4.6732,4.6727,4.6815,4.6847,4.6941,4.6964,4.71,4.7125,4.7145,4.715,4.7145,4.7143,4.7182,4.717,4.7158,4.7156,4.7155,4.7153,0,4.6156,4.6192,4.6343,4.6426,4.645,4.6546,4.6617,4.6699,4.6733,4.6852,4.6881,4.6934,4.7044,4.7079,4.7213,4.7228,4.7386,4.7381,4.7359,4.736,4.7448,4.7439,4.7733,4.7772,4.7535,4.7538,4.754,0,4.6282,4.6374,4.6466,4.6528,4.6576,4.6676,4.674,4.6765,4.6832,4.6931,4.7002,4.711,4.7198,4.7374,4.7425,4.7526,4.7523,4.7619,4.7538,4.7531,4.7524,4.7518,4.7527,4.7634,4.7636,4.7638,4.764,0,4.6501,4.6513,4.6606,4.6705,4.6781,4.686,4.6937,4.6988,4.7024,4.71,4.7211,4.7279,4.7414,4.7522,4.7625,4.7672,4.7663,4.7665,4.7691,4.7688,4.7671,4.768,4.74,4.7658,4.7656,4.7655,4.7654,4.7653,4.6653,4.6734,4.6811,4.6914,4.6974,4.7045,4.7126,4.7169,4.7262,4.7373,4.7383,4.7503,4.7581,4.7718,4.777,4.7864,4.7837,4.7875,4.7885,4.7894,4.7901,4.7656,4.7883,4.7883,4.7882,4.7882,4.7882,0,4.6871,4.692,4.7014,4.712,4.7201,4.7183,4.7267,4.7335,4.7441,4.7514,4.76,4.7727,4.7831,4.789,4.7993,4.8058,4.8056,4.8084,4.808,4.809,4.7919,4.7886,4.8084,4.8084,4.8084,4.8084,4.8084,4.8084,4.6994,4.713,4.7152,4.7317,4.7365,4.7482,4.7531,4.7596,4.7654,4.7796,4.7882,4.7919,4.7986,4.8094,4.8189,4.8203,4.8241,4.8273,4.8284,4.8123,4.8103,4.8083,4.8051,4.8281,4.8281,4.8447,4.8449,4.845]},{"header":{"parameterUnit":"m.s-1","parameterCategory":1,"la1":30.2991,"la2":30.254,"lo1":-89.0895,"lo2":-89.0444,"dy":0.0017,"dx":0.0017,"nx":28,"ny":28,"refTime":"2023-08-08T03:00:00:Z","depth":0,"parameterNumber":3,"parameterNumberName":"V-component_of_WINDS"},"data":[0,0,0,0,0,0,0,0,0,0,0,0,0,0,0,0,0,0,0,0,0,0,0,0,0,0,0,0,0,0,0,0,0,0,0,0,0,0,0,0,0,0,0,0,0,0,0,0,0,0,0,0,0,0,0,0,0,0,-0.2471,-0.2472,0,-0.2522,-0.2522,-0.2523,-0.2556,-0.2556,-0.2556,-0.2556,-0.2607,-0.2608,-0.2609,0,0,0,0,0,0,0,0,0,0,0,0,0,-0.2402,-0.2403,-0.2471,-0.2472,-0.2472,-0.2522,-0.2522,-0.2523,-0.2556,-0.2556,-0.2556,-0.2556,-0.2606,-0.2608,-0.2609,0,0,0,0,0,0,0,0,0,0,0,0,0,-0.244,-0.2403,-0.2471,-0.2495,-0.2497,-0.2522,-0.2522,-0.2523,-0.2556,-0.2556,-0.2556,-0.2557,-0.2606,-0.2608,-0.2609,-0.2613,0,0,-0.2614,-0.2615,0,0,0,0,0,0,0,0,-0.2438,-0.2442,-0.249,-0.2493,-0.2496,-0.2533,-0.2516,-0.2553,-0.2556,-0.2533,-0.2556,-0.2557,-0.2582,-0.2585,-0.2594,-0.2616,-0.2618,-0.2615,-0.2616,-0.2616,-0.2617,0,0,0,0,0,0,0,-0.2435,-0.244,-0.2491,-0.2491,-0.2494,-0.2502,-0.2508,-0.2524,-0.2555,-0.2535,-0.2538,-0.2544,-0.2583,-0.2592,-0.2596,-0.2619,-0.2615,-0.2616,-0.2617,-0.2618,-0.2647,-0.2647,0,0,0,0,0,0,-0.2429,-0.2438,-0.2489,-0.2493,-0.2467,-0.2503,-0.251,-0.2521,-0.2555,-0.2561,-0.2543,-0.2545,-0.2589,-0.2594,-0.2598,-0.2605,-0.2616,-0.2618,-0.2619,-0.2647,-0.2647,-0.2647,0,0,0,0,0,0,-0.2427,-0.2433,-0.2487,-0.2466,-0.2474,-0.2504,-0.2516,-0.2521,-0.2531,-0.2561,-0.2567,-0.2547,-0.259,-0.2595,-0.261,-0.2607,-0.2619,-0.262,-0.2647,-0.2647,-0.2647,-0.262,0,0,0,0,0,0,-0.2425,-0.2432,-0.2434,-0.2466,-0.2475,-0.2499,-0.2516,-0.2522,-0.2534,-0.2536,-0.2566,-0.2571,-0.259,-0.2607,-0.2611,-0.261,-0.2622,-0.2648,-0.2647,-0.2647,-0.2621,-0.2618,-0.2616,0,0,0,0,0,-0.2422,-0.2424,-0.2434,-0.244,-0.2478,-0.2498,-0.2503,-0.2526,-0.2533,-0.2536,-0.2555,-0.257,-0.2607,-0.2608,-0.2613,-0.2612,-0.2648,-0.2647,-0.2647,-0.2622,-0.2619,-0.2616,0,0,0,0,0,0,-0.2391,-0.2429,-0.244,-0.2452,-0.2472,-0.2504,-0.2507,-0.2522,-0.254,-0.2541,-0.2568,-0.2575,-0.2586,-0.2601,-0.2601,-0.2618,-0.2629,-0.263,-0.2608,-0.2606,-0.2604,-0.26,-0.2623,0,0,0,0,0,-0.2386,-0.24,-0.2432,-0.2439,-0.2449,-0.2476,-0.2486,-0.2502,-0.2523,-0.2532,-0.2552,-0.2572,-0.2588,-0.2598,-0.2614,-0.2623,-0.263,-0.2625,-0.2623,-0.2621,-0.2621,-0.2627,-0.2625,-0.2645,-0.2645,-0.2645,0,0,-0.2374,-0.2397,-0.2404,-0.2434,-0.2451,-0.2464,-0.2483,-0.2496,-0.2507,-0.2533,-0.2548,-0.2564,-0.2588,-0.26,-0.2606,-0.2612,-0.2617,-0.262,-0.2618,-0.262,-0.2626,-0.2624,-0.2623,-0.2644,-0.2644,-0.2644,0,0,-0.2361,-0.2379,-0.2388,-0.2405,-0.2431,-0.2449,-0.2451,-0.2481,-0.2493,-0.2509,-0.2529,-0.2541,-0.2568,-0.2585,-0.2596,-0.259,-0.2604,-0.2594,-0.2582,-0.2588,-0.2586,-0.2585,-0.2582,-0.2581,-0.2594,-0.2594,-0.2594,0,-0.2343,-0.2365,-0.239,-0.2403,-0.2415,-0.2441,-0.245,-0.2465,-0.2494,-0.2502,-0.2509,-0.2544,-0.2561,-0.2578,-0.2576,-0.2585,-0.2588,-0.2591,-0.2584,-0.2583,-0.2583,-0.2581,-0.258,-0.2593,-0.2593,-0.2593,-0.2593,0,-0.2342,-0.2357,-0.2361,-0.2389,-0.2402,-0.2413,-0.2439,-0.245,-0.2465,-0.2482,-0.2498,-0.252,-0.2542,-0.2547,-0.2561,-0.2565,-0.2568,-0.2579,-0.2591,-0.2579,-0.2578,-0.2577,-0.2591,-0.2591,-0.2592,-0.2592,0,0,-0.2309,-0.2353,-0.2354,-0.2367,-0.2398,-0.241,-0.2421,-0.2443,-0.2451,-0.2471,-0.2481,-0.2504,-0.2515,-0.2528,-0.2545,-0.255,-0.2543,-0.256,-0.2561,-0.2556,-0.2549,-0.254,-0.2539,-0.2553,-0.2553,-0.2553,-0.2547,0,-0.23,-0.2323,-0.2346,-0.2361,-0.2375,-0.24,-0.241,-0.243,-0.2447,-0.2461,-0.248,-0.2495,-0.2508,-0.2517,-0.2523,-0.2543,-0.2542,-0.2543,-0.2563,-0.2563,-0.2555,-0.2538,-0.2529,-0.2521,-0.2546,-0.2546,-0.2546,0,-0.2292,-0.2312,-0.2328,-0.2358,-0.2364,-0.2373,-0.2395,-0.2409,-0.2432,-0.2444,-0.2459,-0.2477,-0.249,-0.2501,-0.252,-0.252,-0.2529,-0.254,-0.2541,-0.2543,-0.2553,-0.2539,-0.252,-0.2518,-0.2546,-0.2546,-0.2546,0,-0.2267,-0.2297,-0.231,-0.2321,-0.2356,-0.2362,-0.2377,-0.2401,-0.2412,-0.2431,-0.2439,-0.246,-0.2471,-0.2486,-0.2509,-0.2514,-0.2525,-0.2537,-0.2535,-0.2534,-0.2536,-0.2535,-0.2517,-0.2542,-0.2542,-0.2542,-0.2542,0,-0.2254,-0.2262,-0.2299,-0.2307,-0.2318,-0.2345,-0.2354,-0.2371,-0.2392,-0.2404,-0.2427,-0.2438,-0.2467,-0.2482,-0.25,-0.2512,-0.2517,-0.2527,-0.2532,-0.2525,-0.2524,-0.2531,-0.2532,-0.2542,-0.2542,-0.2542,-0.2542,0,-0.2226,-0.2251,-0.2268,-0.23,-0.2309,-0.2315,-0.2343,-0.2352,-0.237,-0.2385,-0.239,-0.2419,-0.2437,-0.2462,-0.2487,-0.2499,-0.2509,-0.2517,-0.2502,-0.2504,-0.2501,-0.2501,-0.2486,-0.2486,-0.2512,-0.2511,-0.2511,0,-0.2216,-0.2224,-0.2257,-0.2267,-0.2281,-0.2297,-0.2309,-0.2336,-0.2348,-0.2375,-0.2381,-0.2401,-0.2418,-0.2445,-0.2468,-0.2488,-0.2496,-0.2489,-0.2499,-0.2492,-0.2495,-0.2494,-0.2495,-0.2487,-0.2486,-0.2486,-0.2486,0,-0.2195,-0.2208,-0.2225,-0.2246,-0.226,-0.2279,-0.2298,-0.2304,-0.2335,-0.2347,-0.2366,-0.238,-0.2406,-0.2425,-0.2448,-0.2463,-0.2479,-0.2483,-0.2483,-0.2476,-0.2467,-0.2472,-0.2495,-0.2483,-0.2483,-0.2483,-0.2484,-0.2484,-0.2176,-0.2184,-0.2209,-0.2227,-0.2245,-0.2262,-0.2272,-0.2293,-0.2309,-0.2333,-0.2348,-0.2366,-0.239,-0.2422,-0.2436,-0.2451,-0.2457,-0.2458,-0.2458,-0.2458,-0.2456,-0.2465,-0.2455,-0.2455,-0.2455,-0.2456,-0.2456,0,-0.2156,-0.2174,-0.2191,-0.2217,-0.2232,-0.2247,-0.2269,-0.228,-0.2296,-0.2316,-0.2333,-0.2355,-0.2374,-0.2399,-0.242,-0.2427,-0.2435,-0.2431,-0.243,-0.2434,-0.2449,-0.2446,-0.2424,-0.2424,-0.2424,-0.2424,-0.2424,-0.2424,-0.2148,-0.2162,-0.2177,-0.22,-0.2218,-0.2236,-0.2247,-0.2264,-0.2281,-0.2304,-0.232,-0.2337,-0.2359,-0.2382,-0.24,-0.2407,-0.2413,-0.2407,-0.2417,-0.243,-0.2433,-0.2435,-0.2433,-0.2409,-0.2409,-0.24,-0.24,-0.24]}]]